owner,sensor,date,latitude,longitude,vertical_datum,wind_speed,wind_to_direction,wind_speed_of_gust,qcFlag 
TABS,ioos:station:wmo:42045:1,2015-09-01T00:00:00Z,26.2168,-96.4998,4.0,5.453109205,145.6108183,6.59,'11111222,11111222,11111222' 
TABS,ioos:station:wmo:42045:1,2015-09-01T00:30:00Z,26.2168,-96.4998,4.0,5.200740332,137.1041077,6.55,'11111222,11111222,11111222' 
TABS,ioos:station:wmo:42045:1,2015-09-01T01:00:00Z,26.2168,-96.4998,4.0,5.296800921,135.8417133,6.8,'11111222,11111222,11111222' 
TABS,ioos:station:wmo:42045:1,2015-09-01T01:30:00Z,26.2168,-96.4998,4.0,5.060039526,126.6437685,6.26,'11111222,11111222,11111222' 
TABS,ioos:station:wmo:42045:1,2015-09-01T02:00:00Z,26.2168,-96.4998,4.0,5.067869375,124.6311403,6.25,'11111222,11111222,11111222' 
TABS,ioos:station:wmo:42045:1,2015-09-01T02:30:00Z,26.2168,-96.4998,4.0,4.280490626,124.9155996,5.35,'11111222,11111222,11111222' 
TABS,ioos:station:wmo:42045:1,2015-09-01T03:00:00Z,26.2168,-96.4998,4.0,4.494307511,125.0341352,5.24,'11111222,11111222,11111222' 
TABS,ioos:station:wmo:42045:1,2015-09-01T03:30:00Z,26.2168,-96.4998,4.0,4.9710864,134.5928144,6.1,'11111222,11111222,11111222' 
TABS,ioos:station:wmo:42045:1,2015-09-01T04:00:00Z,26.2168,-96.4998,4.0,4.104741161,144.2192203,5.08,'11111222,11111222,11111222' 
TABS,ioos:station:wmo:42045:1,2015-09-01T04:30:00Z,26.2168,-96.4998,4.0,5.195940723,141.5643699,6.33,'11111222,11111222,11111222' 
TABS,ioos:station:wmo:42045:1,2015-09-01T05:00:00Z,26.2168,-96.4998,4.0,4.992003606,143.0615341,6.08,'11111222,11111222,11111222' 
TABS,ioos:station:wmo:42045:1,2015-09-01T05:30:00Z,26.2168,-96.4998,4.0,5.649867255,146.844628,6.95,'11111222,11111222,11111222' 
TABS,ioos:station:wmo:42045:1,2015-09-01T06:00:00Z,26.2168,-96.4998,4.0,6.013493161,144.4072363,7.13,'11111222,11111222,11111222' 
TABS,ioos:station:wmo:42045:1,2015-09-01T06:30:00Z,26.2168,-96.4998,4.0,5.472202482,139.001525,6.62,'11111222,11111222,11111222' 
TABS,ioos:station:wmo:42045:1,2015-09-01T07:00:00Z,26.2168,-96.4998,4.0,5.515840824,129.9255972,7.04,'11111222,11111222,11111222' 
TABS,ioos:station:wmo:42045:1,2015-09-01T07:30:00Z,26.2168,-96.4998,4.0,11.50376025,166.3747143,15.3,'11111222,11111222,11111222' 
TABS,ioos:station:wmo:42045:1,2015-09-01T08:00:00Z,26.2168,-96.4998,4.0,8.355961943,152.1778636,10.7,'11111222,11111222,11111222' 
TABS,ioos:station:wmo:42045:1,2015-09-01T08:30:00Z,26.2168,-96.4998,4.0,7.611281101,148.649225,9.11,'11111222,11111222,11111222' 
TABS,ioos:station:wmo:42045:1,2015-09-01T09:00:00Z,26.2168,-96.4998,4.0,6.444850658,147.7404659,7.63,'11111222,11111222,11111222' 
TABS,ioos:station:wmo:42045:1,2015-09-01T09:30:00Z,26.2168,-96.4998,4.0,5.498308831,194.213337,10.0,'11111222,11111222,11111222' 
TABS,ioos:station:wmo:42045:1,2015-09-01T10:00:00Z,26.2168,-96.4998,4.0,7.944211729,204.3068232,10.99,'11111222,11111222,11111222' 
TABS,ioos:station:wmo:42045:1,2015-09-01T10:30:00Z,26.2168,-96.4998,4.0,7.160446913,201.9798743,8.45,'11111222,11111222,11111222' 
TABS,ioos:station:wmo:42045:1,2015-09-01T11:00:00Z,26.2168,-96.4998,4.0,2.080216335,270.8263222,2.85,'11111222,11111222,11111222' 
TABS,ioos:station:wmo:42045:1,2015-09-01T11:30:00Z,26.2168,-96.4998,4.0,2.545780823,12.01592354,3.81,'11111222,11111222,11111222' 
TABS,ioos:station:wmo:42045:1,2015-09-01T12:00:00Z,26.2168,-96.4998,4.0,6.147332755,38.06269934,7.51,'11111222,11111222,11111222' 
TABS,ioos:station:wmo:42045:1,2015-09-01T12:30:00Z,26.2168,-96.4998,4.0,6.499423051,60.20009594,8.02,'11111222,11111222,11111222' 
TABS,ioos:station:wmo:42045:1,2015-09-01T13:00:00Z,26.2168,-96.4998,4.0,7.591291063,68.43648387,9.15,'11111222,11111222,11111222' 
TABS,ioos:station:wmo:42045:1,2015-09-01T13:30:00Z,26.2168,-96.4998,4.0,8.549362549,87.3179022,10.34,'11111222,11111222,11111222' 
TABS,ioos:station:wmo:42045:1,2015-09-01T14:00:00Z,26.2168,-96.4998,4.0,9.082169344,92.9667813,10.81,'11111222,11111222,11111222' 
TABS,ioos:station:wmo:42045:1,2015-09-01T14:30:00Z,26.2168,-96.4998,4.0,8.144476656,95.99100163,10.0,'11111222,11111222,11111222' 
TABS,ioos:station:wmo:42045:1,2015-09-01T15:00:00Z,26.2168,-96.4998,4.0,7.468768305,95.8407668,9.57,'11111222,11111222,11111222' 
TABS,ioos:station:wmo:42045:1,2015-09-01T15:30:00Z,26.2168,-96.4998,4.0,7.044863377,95.7029081,8.25,'11111222,11111222,11111222' 
TABS,ioos:station:wmo:42045:1,2015-09-01T16:00:00Z,26.2168,-96.4998,4.0,6.213058828,98.79564122,7.44,'11111222,11111222,11111222' 
TABS,ioos:station:wmo:42045:1,2015-09-01T16:30:00Z,26.2168,-96.4998,4.0,6.45728271,96.93832446,8.03,'11111222,11111222,11111222' 
TABS,ioos:station:wmo:42045:1,2015-09-01T17:00:00Z,26.2168,-96.4998,4.0,6.482136993,102.0210685,8.36,'11111222,11111222,11111222' 
TABS,ioos:station:wmo:42045:1,2015-09-01T17:30:00Z,26.2168,-96.4998,4.0,6.156005198,114.9835195,7.56,'11111222,11111222,11111222' 
TABS,ioos:station:wmo:42045:1,2015-09-01T18:00:00Z,26.2168,-96.4998,4.0,6.499423051,125.6712372,8.05,'11111222,11111222,11111222' 
TABS,ioos:station:wmo:42045:1,2015-09-01T18:30:00Z,26.2168,-96.4998,4.0,6.929884559,124.9517193,8.72,'11111222,11111222,11111222' 
TABS,ioos:station:wmo:42045:1,2015-09-01T19:00:00Z,26.2168,-96.4998,4.0,7.354576806,135.7715566,8.77,'11111222,11111222,11111222' 
TABS,ioos:station:wmo:42045:1,2015-09-01T19:30:00Z,26.2168,-96.4998,4.0,5.954905541,128.6601388,7.5,'11111222,11111222,11111222' 
TABS,ioos:station:wmo:42045:1,2015-09-01T20:00:00Z,26.2168,-96.4998,4.0,7.157010549,131.2615595,8.62,'11111222,11111222,11111222' 
TABS,ioos:station:wmo:42045:1,2015-09-01T20:30:00Z,26.2168,-96.4998,4.0,6.793975272,131.4797862,8.19,'11111222,11111222,11111222' 
TABS,ioos:station:wmo:42045:1,2015-09-01T21:00:00Z,26.2168,-96.4998,4.0,7.210693448,132.8085197,8.62,'11111222,11111222,11111222' 
TABS,ioos:station:wmo:42045:1,2015-09-01T21:30:00Z,26.2168,-96.4998,4.0,6.974998208,125.9008832,8.74,'11111222,11111222,11111222' 
TABS,ioos:station:wmo:42045:1,2015-09-01T22:00:00Z,26.2168,-96.4998,4.0,7.426344996,120.328983,8.82,'11111222,11111222,11111222' 
TABS,ioos:station:wmo:42045:1,2015-09-01T22:30:00Z,26.2168,-96.4998,4.0,7.788863845,126.0168934,8.81,'11111222,11111222,11111222' 
TABS,ioos:station:wmo:42045:1,2015-09-01T23:00:00Z,26.2168,-96.4998,4.0,7.355786838,128.7087975,8.65,'11111222,11111222,11111222' 
TABS,ioos:station:wmo:42045:1,2015-09-01T23:30:00Z,26.2168,-96.4998,4.0,7.342206753,125.4654436,9.21,'11111222,11111222,11111222' 
TABS,ioos:station:wmo:42045:1,2015-09-02T00:00:00Z,26.2168,-96.4998,4.0,6.886806226,122.0057293,8.34,'11111222,11111222,11111222' 
TABS,ioos:station:wmo:42045:1,2015-09-02T00:30:00Z,26.2168,-96.4998,4.0,6.589210878,115.2431384,7.92,'11111222,11111222,11111222' 
TABS,ioos:station:wmo:42045:1,2015-09-02T01:00:00Z,26.2168,-96.4998,4.0,6.482692342,111.5391831,8.47,'11111222,11111222,11111222' 
TABS,ioos:station:wmo:42045:1,2015-09-02T01:30:00Z,26.2168,-96.4998,4.0,6.55330451,112.1427243,7.55,'11111222,11111222,11111222' 
TABS,ioos:station:wmo:42045:1,2015-09-02T02:00:00Z,26.2168,-96.4998,4.0,5.581290173,116.8408677,6.94,'11111222,11111222,11111222' 
TABS,ioos:station:wmo:42045:1,2015-09-02T02:30:00Z,26.2168,-96.4998,4.0,6.00300758,117.8033497,7.36,'11111222,11111222,11111222' 
TABS,ioos:station:wmo:42045:1,2015-09-02T03:00:00Z,26.2168,-96.4998,4.0,6.319533211,117.2141652,7.57,'11111222,11111222,11111222' 
TABS,ioos:station:wmo:42045:1,2015-09-02T03:30:00Z,26.2168,-96.4998,4.0,6.388059173,113.2342885,7.51,'11111222,11111222,11111222' 
TABS,ioos:station:wmo:42045:1,2015-09-02T04:00:00Z,26.2168,-96.4998,4.0,5.890950687,115.4344356,6.77,'11111222,11111222,11111222' 
TABS,ioos:station:wmo:42045:1,2015-09-02T04:30:00Z,26.2168,-96.4998,4.0,5.929856659,113.4527006,7.06,'11111222,11111222,11111222' 
TABS,ioos:station:wmo:42045:1,2015-09-02T05:00:00Z,26.2168,-96.4998,4.0,6.091346321,119.7218991,7.41,'11111222,11111222,11111222' 
TABS,ioos:station:wmo:42045:1,2015-09-02T05:30:00Z,26.2168,-96.4998,4.0,6.34255469,125.243979,7.66,'11111222,11111222,11111222' 
TABS,ioos:station:wmo:42045:1,2015-09-02T06:00:00Z,26.2168,-96.4998,4.0,5.936303564,129.0520524,7.23,'11111222,11111222,11111222' 
TABS,ioos:station:wmo:42045:1,2015-09-02T06:30:00Z,26.2168,-96.4998,4.0,5.452164708,134.3315253,6.52,'11111222,11111222,11111222' 
TABS,ioos:station:wmo:42045:1,2015-09-02T07:00:00Z,26.2168,-96.4998,4.0,4.910498956,126.0534455,6.28,'11111222,11111222,11111222' 
TABS,ioos:station:wmo:42045:1,2015-09-02T07:30:00Z,26.2168,-96.4998,4.0,5.411811157,136.7224111,6.45,'11111222,11111222,11111222' 
TABS,ioos:station:wmo:42045:1,2015-09-02T08:00:00Z,26.2168,-96.4998,4.0,5.372383084,141.4237711,6.1,'11111222,11111222,11111222' 
TABS,ioos:station:wmo:42045:1,2015-09-02T08:30:00Z,26.2168,-96.4998,4.0,5.439237079,144.3524084,6.62,'11111222,11111222,11111222' 
TABS,ioos:station:wmo:42045:1,2015-09-02T09:00:00Z,26.2168,-96.4998,4.0,4.573510687,146.4144587,5.25,'11111222,11111222,11111222' 
TABS,ioos:station:wmo:42045:1,2015-09-02T09:30:00Z,26.2168,-96.4998,4.0,4.220580529,149.0598078,5.18,'11111222,11111222,11111222' 
TABS,ioos:station:wmo:42045:1,2015-09-02T10:00:00Z,26.2168,-96.4998,4.0,4.033174928,145.40397,5.23,'11111222,11111222,11111222' 
TABS,ioos:station:wmo:42045:1,2015-09-02T10:30:00Z,26.2168,-96.4998,4.0,2.444299491,129.3557067,3.53,'11111222,11111222,11111222' 
TABS,ioos:station:wmo:42045:1,2015-09-02T11:00:00Z,26.2168,-96.4998,4.0,3.514896869,189.1677273,3.93,'11111222,11111222,11111222' 
TABS,ioos:station:wmo:42045:1,2015-09-02T11:30:00Z,26.2168,-96.4998,4.0,3.848077442,188.0671233,4.6,'11111222,11111222,11111222' 
TABS,ioos:station:wmo:42045:1,2015-09-02T12:00:00Z,26.2168,-96.4998,4.0,3.170252356,179.2772754,3.84,'11111222,11111222,11111222' 
TABS,ioos:station:wmo:42045:1,2015-09-02T12:30:00Z,26.2168,-96.4998,4.0,2.634862425,160.2586678,3.28,'11111222,11111222,11111222' 
TABS,ioos:station:wmo:42045:1,2015-09-02T13:00:00Z,26.2168,-96.4998,4.0,2.690724809,174.8829076,3.12,'11111222,11111222,11111222' 
TABS,ioos:station:wmo:42045:1,2015-09-02T13:30:00Z,26.2168,-96.4998,4.0,3.797709836,138.6298781,4.8,'11111222,11111222,11111222' 
TABS,ioos:station:wmo:42045:1,2015-09-02T14:00:00Z,26.2168,-96.4998,4.0,3.612215387,151.0227052,4.86,'11111222,11111222,11111222' 
TABS,ioos:station:wmo:42045:1,2015-09-02T14:30:00Z,26.2168,-96.4998,4.0,4.678471973,152.5041122,5.65,'11111222,11111222,11111222' 
TABS,ioos:station:wmo:42045:1,2015-09-02T15:00:00Z,26.2168,-96.4998,4.0,2.505394181,165.9085345,3.16,'11111222,11111222,11111222' 
TABS,ioos:station:wmo:42045:1,2015-09-02T15:30:00Z,26.2168,-96.4998,4.0,3.333481663,158.9010475,4.29,'11111222,11111222,11111222' 
TABS,ioos:station:wmo:42045:1,2015-09-02T16:00:00Z,26.2168,-96.4998,4.0,6.762521719,154.2309431,8.15,'11111222,11111222,11111222' 
TABS,ioos:station:wmo:42045:1,2015-09-02T16:30:00Z,26.2168,-96.4998,4.0,4.236567006,170.6268442,6.12,'11111222,11111222,11111222' 
TABS,ioos:station:wmo:42045:1,2015-09-02T17:00:00Z,26.2168,-96.4998,4.0,3.785828839,176.8203878,4.38,'11111222,11111222,11111222' 
TABS,ioos:station:wmo:42045:1,2015-09-02T17:30:00Z,26.2168,-96.4998,4.0,3.017962889,164.6285715,4.03,'11111222,11111222,11111222' 
TABS,ioos:station:wmo:42045:1,2015-09-02T18:00:00Z,26.2168,-96.4998,4.0,2.882932535,149.3432818,3.87,'11111222,11111222,11111222' 
TABS,ioos:station:wmo:42045:1,2015-09-02T18:30:00Z,26.2168,-96.4998,4.0,2.37892833,168.3596655,2.96,'11111222,11111222,11111222' 
TABS,ioos:station:wmo:42045:1,2015-09-02T19:00:00Z,26.2168,-96.4998,4.0,2.189086567,156.0112025,3.02,'11111222,11111222,11111222' 
TABS,ioos:station:wmo:42045:1,2015-09-02T19:30:00Z,26.2168,-96.4998,4.0,1.69,135.240045,2.27,'11111222,11111222,11111222' 
TABS,ioos:station:wmo:42045:1,2015-09-02T20:00:00Z,26.2168,-96.4998,4.0,1.844017353,143.3789686,2.45,'11111222,11111222,11111222' 
TABS,ioos:station:wmo:42045:1,2015-09-02T20:30:00Z,26.2168,-96.4998,4.0,2.518352636,146.4995238,3.2,'11111222,11111222,11111222' 
TABS,ioos:station:wmo:42045:1,2015-09-02T21:00:00Z,26.2168,-96.4998,4.0,2.57670332,124.2454631,3.71,'11111222,11111222,11111222' 
TABS,ioos:station:wmo:42045:1,2015-09-02T21:30:00Z,26.2168,-96.4998,4.0,3.896254612,109.1793841,5.35,'11111222,11111222,11111222' 
TABS,ioos:station:wmo:42045:1,2015-09-02T22:00:00Z,26.2168,-96.4998,4.0,4.12368767,108.083824,5.34,'11111222,11111222,11111222' 
TABS,ioos:station:wmo:42045:1,2015-09-02T22:30:00Z,26.2168,-96.4998,4.0,3.829059937,111.6072751,4.44,'11111222,11111222,11111222' 
TABS,ioos:station:wmo:42045:1,2015-09-02T23:00:00Z,26.2168,-96.4998,4.0,4.329110763,116.9205437,5.24,'11111222,11111222,11111222' 
TABS,ioos:station:wmo:42045:1,2015-09-02T23:30:00Z,26.2168,-96.4998,4.0,3.640013736,109.0824263,4.34,'11111222,11111222,11111222' 
TABS,ioos:station:wmo:42045:1,2015-09-03T00:00:00Z,26.2168,-96.4998,4.0,0.0,0.0,0.0,'11111222,11111222,11111222' 
TABS,ioos:station:wmo:42045:1,2015-09-03T00:30:00Z,26.2168,-96.4998,4.0,4.201071292,101.9522681,5.26,'11111222,11111222,11111222' 
TABS,ioos:station:wmo:42045:1,2015-09-03T01:00:00Z,26.2168,-96.4998,4.0,5.373136886,112.890919,6.45,'11111222,11111222,11111222' 
TABS,ioos:station:wmo:42045:1,2015-09-03T01:30:00Z,26.2168,-96.4998,4.0,5.074958128,110.2921411,6.48,'11111222,11111222,11111222' 
TABS,ioos:station:wmo:42045:1,2015-09-03T02:00:00Z,26.2168,-96.4998,4.0,5.322649716,119.1176895,6.73,'11111222,11111222,11111222' 
TABS,ioos:station:wmo:42045:1,2015-09-03T02:30:00Z,26.2168,-96.4998,4.0,6.114769006,125.1458842,7.21,'11111222,11111222,11111222' 
TABS,ioos:station:wmo:42045:1,2015-09-03T03:00:00Z,26.2168,-96.4998,4.0,6.625103773,129.1193585,8.18,'11111222,11111222,11111222' 
TABS,ioos:station:wmo:42045:1,2015-09-03T03:30:00Z,26.2168,-96.4998,4.0,5.998283088,136.486426,7.24,'11111222,11111222,11111222' 
TABS,ioos:station:wmo:42045:1,2015-09-03T04:00:00Z,26.2168,-96.4998,4.0,5.373453266,139.0751793,6.26,'11111222,11111222,11111222' 
TABS,ioos:station:wmo:42045:1,2015-09-03T04:30:00Z,26.2168,-96.4998,4.0,6.639826805,134.6952299,7.69,'11111222,11111222,11111222' 
TABS,ioos:station:wmo:42045:1,2015-09-03T05:00:00Z,26.2168,-96.4998,4.0,6.459605251,141.8530367,7.38,'11111222,11111222,11111222' 
TABS,ioos:station:wmo:42045:1,2015-09-03T05:30:00Z,26.2168,-96.4998,4.0,6.134011738,143.0183112,7.01,'11111222,11111222,11111222' 
TABS,ioos:station:wmo:42045:1,2015-09-03T06:00:00Z,26.2168,-96.4998,4.0,5.96483864,144.8981034,7.0,'11111222,11111222,11111222' 
TABS,ioos:station:wmo:42045:1,2015-09-03T06:30:00Z,26.2168,-96.4998,4.0,6.29448171,147.5221128,7.42,'11111222,11111222,11111222' 
TABS,ioos:station:wmo:42045:1,2015-09-03T07:00:00Z,26.2168,-96.4998,4.0,6.215343916,168.0213734,7.12,'11111222,11111222,11111222' 
TABS,ioos:station:wmo:42045:1,2015-09-03T07:30:00Z,26.2168,-96.4998,4.0,5.411173625,173.8471207,6.37,'11111222,11111222,11111222' 
TABS,ioos:station:wmo:42045:1,2015-09-03T08:00:00Z,26.2168,-96.4998,4.0,5.879676862,174.241149,6.87,'11111222,11111222,11111222' 
TABS,ioos:station:wmo:42045:1,2015-09-03T08:30:00Z,26.2168,-96.4998,4.0,5.203114452,181.9827297,6.67,'11111222,11111222,11111222' 
TABS,ioos:station:wmo:42045:1,2015-09-03T09:00:00Z,26.2168,-96.4998,4.0,5.130789413,178.9951268,5.74,'11111222,11111222,11111222' 
TABS,ioos:station:wmo:42045:1,2015-09-03T09:30:00Z,26.2168,-96.4998,4.0,4.751273513,178.673601,5.35,'11111222,11111222,11111222' 
TABS,ioos:station:wmo:42045:1,2015-09-03T10:00:00Z,26.2168,-96.4998,4.0,4.942590414,178.1451295,5.52,'11111222,11111222,11111222' 
TABS,ioos:station:wmo:42045:1,2015-09-03T10:30:00Z,26.2168,-96.4998,4.0,4.647601532,172.7070095,5.51,'11111222,11111222,11111222' 
TABS,ioos:station:wmo:42045:1,2015-09-03T11:00:00Z,26.2168,-96.4998,4.0,4.718315377,176.5981039,5.4,'11111222,11111222,11111222' 
TABS,ioos:station:wmo:42045:1,2015-09-03T11:30:00Z,26.2168,-96.4998,4.0,5.000489976,180.8022971,6.03,'11111222,11111222,11111222' 
TABS,ioos:station:wmo:42045:1,2015-09-03T12:00:00Z,26.2168,-96.4998,4.0,5.020995917,181.141407,5.76,'11111222,11111222,11111222' 
TABS,ioos:station:wmo:42045:1,2015-09-03T12:30:00Z,26.2168,-96.4998,4.0,4.611117001,176.0208373,5.2,'11111222,11111222,11111222' 
TABS,ioos:station:wmo:42045:1,2015-09-03T13:00:00Z,26.2168,-96.4998,4.0,4.53027593,179.3678339,5.16,'11111222,11111222,11111222' 
TABS,ioos:station:wmo:42045:1,2015-09-03T13:30:00Z,26.2168,-96.4998,4.0,3.427097898,193.6714856,4.06,'11111222,11111222,11111222' 
TABS,ioos:station:wmo:42045:1,2015-09-03T14:00:00Z,26.2168,-96.4998,4.0,1.938375609,174.6719881,2.41,'11111222,11111222,11111222' 
TABS,ioos:station:wmo:42045:1,2015-09-03T14:30:00Z,26.2168,-96.4998,4.0,4.709193137,169.4777419,6.51,'11111222,11111222,11111222' 
TABS,ioos:station:wmo:42045:1,2015-09-03T15:00:00Z,26.2168,-96.4998,4.0,6.512518714,174.2721225,7.74,'11111222,11111222,11111222' 
TABS,ioos:station:wmo:42045:1,2015-09-03T15:30:00Z,26.2168,-96.4998,4.0,6.331421641,174.2896307,7.06,'11111222,11111222,11111222' 
TABS,ioos:station:wmo:42045:1,2015-09-03T16:00:00Z,26.2168,-96.4998,4.0,6.260966379,171.3653897,7.14,'11111222,11111222,11111222' 
TABS,ioos:station:wmo:42045:1,2015-09-03T16:30:00Z,26.2168,-96.4998,4.0,4.890940605,170.2297687,5.68,'11111222,11111222,11111222' 
TABS,ioos:station:wmo:42045:1,2015-09-03T17:00:00Z,26.2168,-96.4998,4.0,4.59309264,174.2523935,5.49,'11111222,11111222,11111222' 
TABS,ioos:station:wmo:42045:1,2015-09-03T17:30:00Z,26.2168,-96.4998,4.0,3.485398112,173.079109,4.46,'11111222,11111222,11111222' 
TABS,ioos:station:wmo:42045:1,2015-09-03T18:00:00Z,26.2168,-96.4998,4.0,3.503041536,172.1245671,4.6,'11111222,11111222,11111222' 
TABS,ioos:station:wmo:42045:1,2015-09-03T18:30:00Z,26.2168,-96.4998,4.0,3.820274859,159.1458012,4.79,'11111222,11111222,11111222' 
TABS,ioos:station:wmo:42045:1,2015-09-03T19:00:00Z,26.2168,-96.4998,4.0,4.175416147,169.0939777,4.99,'11111222,11111222,11111222' 
TABS,ioos:station:wmo:42045:1,2015-09-03T19:30:00Z,26.2168,-96.4998,4.0,3.913106183,175.309537,4.72,'11111222,11111222,11111222' 
TABS,ioos:station:wmo:42045:1,2015-09-03T20:00:00Z,26.2168,-96.4998,4.0,4.12054608,161.1695621,4.99,'11111222,11111222,11111222' 
TABS,ioos:station:wmo:42045:1,2015-09-03T20:30:00Z,26.2168,-96.4998,4.0,3.776413643,183.3399354,4.36,'11111222,11111222,11111222' 
TABS,ioos:station:wmo:42045:1,2015-09-03T21:00:00Z,26.2168,-96.4998,4.0,3.247799255,169.1746764,3.82,'11111222,11111222,11111222' 
TABS,ioos:station:wmo:42045:1,2015-09-03T21:30:00Z,26.2168,-96.4998,4.0,2.645694616,168.2231153,3.91,'11111222,11111222,11111222' 
TABS,ioos:station:wmo:42045:1,2015-09-03T22:00:00Z,26.2168,-96.4998,4.0,2.819645368,148.3395334,3.73,'11111222,11111222,11111222' 
TABS,ioos:station:wmo:42045:1,2015-09-03T22:30:00Z,26.2168,-96.4998,4.0,2.780287755,127.6945732,3.46,'11111222,11111222,11111222' 
TABS,ioos:station:wmo:42045:1,2015-09-03T23:00:00Z,26.2168,-96.4998,4.0,3.19375954,128.7722083,4.01,'11111222,11111222,11111222' 
TABS,ioos:station:wmo:42045:1,2015-09-03T23:30:00Z,26.2168,-96.4998,4.0,3.812099159,136.1694523,4.44,'11111222,11111222,11111222' 
TABS,ioos:station:wmo:42045:1,2015-09-04T00:00:00Z,26.2168,-96.4998,4.0,4.693335701,139.1474253,5.31,'11111222,11111222,11111222' 
TABS,ioos:station:wmo:42045:1,2015-09-04T00:30:00Z,26.2168,-96.4998,4.0,5.827426533,137.9911718,6.94,'11111222,11111222,11111222' 
TABS,ioos:station:wmo:42045:1,2015-09-04T01:00:00Z,26.2168,-96.4998,4.0,5.364568948,128.6434588,6.35,'11111222,11111222,11111222' 
TABS,ioos:station:wmo:42045:1,2015-09-04T01:30:00Z,26.2168,-96.4998,4.0,6.25406268,143.3869176,7.38,'11111222,11111222,11111222' 
TABS,ioos:station:wmo:42045:1,2015-09-04T02:00:00Z,26.2168,-96.4998,4.0,6.504467695,143.817491,7.51,'11111222,11111222,11111222' 
TABS,ioos:station:wmo:42045:1,2015-09-04T02:30:00Z,26.2168,-96.4998,4.0,6.384113094,143.4714405,7.44,'11111222,11111222,11111222' 
TABS,ioos:station:wmo:42045:1,2015-09-04T03:00:00Z,26.2168,-96.4998,4.0,6.978287756,145.9230949,7.79,'11111222,11111222,11111222' 
TABS,ioos:station:wmo:42045:1,2015-09-04T03:30:00Z,26.2168,-96.4998,4.0,7.222831855,148.0705787,8.15,'11111222,11111222,11111222' 
TABS,ioos:station:wmo:42045:1,2015-09-04T04:00:00Z,26.2168,-96.4998,4.0,7.240400541,153.3290529,8.59,'11111222,11111222,11111222' 
TABS,ioos:station:wmo:42045:1,2015-09-04T04:30:00Z,26.2168,-96.4998,4.0,7.353182984,154.3761237,8.5,'11111222,11111222,11111222' 
TABS,ioos:station:wmo:42045:1,2015-09-04T05:00:00Z,26.2168,-96.4998,4.0,7.853285936,153.8593841,8.9,'11111222,11111222,11111222' 
TABS,ioos:station:wmo:42045:1,2015-09-04T05:30:00Z,26.2168,-96.4998,4.0,7.624440963,161.9692906,8.62,'11111222,11111222,11111222' 
TABS,ioos:station:wmo:42045:1,2015-09-04T06:00:00Z,26.2168,-96.4998,4.0,7.858403146,161.21946,9.16,'11111222,11111222,11111222' 
TABS,ioos:station:wmo:42045:1,2015-09-04T06:30:00Z,26.2168,-96.4998,4.0,7.521336317,165.4466717,8.7,'11111222,11111222,11111222' 
TABS,ioos:station:wmo:42045:1,2015-09-04T07:00:00Z,26.2168,-96.4998,4.0,8.170220315,164.1608121,9.2,'11111222,11111222,11111222' 
TABS,ioos:station:wmo:42045:1,2015-09-04T07:30:00Z,26.2168,-96.4998,4.0,7.499893333,170.6383849,8.42,'11111222,11111222,11111222' 
TABS,ioos:station:wmo:42045:1,2015-09-04T08:00:00Z,26.2168,-96.4998,4.0,7.374333868,164.9086731,8.63,'11111222,11111222,11111222' 
TABS,ioos:station:wmo:42045:1,2015-09-04T08:30:00Z,26.2168,-96.4998,4.0,7.021573898,170.2427821,8.16,'11111222,11111222,11111222' 
TABS,ioos:station:wmo:42045:1,2015-09-04T09:00:00Z,26.2168,-96.4998,4.0,6.25936099,172.1031402,7.32,'11111222,11111222,11111222' 
TABS,ioos:station:wmo:42045:1,2015-09-04T09:30:00Z,26.2168,-96.4998,4.0,5.946301371,175.7567077,6.94,'11111222,11111222,11111222' 
TABS,ioos:station:wmo:42045:1,2015-09-04T10:00:00Z,26.2168,-96.4998,4.0,5.657464096,173.4028032,6.47,'11111222,11111222,11111222' 
TABS,ioos:station:wmo:42045:1,2015-09-04T10:30:00Z,26.2168,-96.4998,4.0,5.397128866,168.5653868,6.71,'11111222,11111222,11111222' 
TABS,ioos:station:wmo:42045:1,2015-09-04T11:00:00Z,26.2168,-96.4998,4.0,5.473910851,161.4660056,6.13,'11111222,11111222,11111222' 
TABS,ioos:station:wmo:42045:1,2015-09-04T11:30:00Z,26.2168,-96.4998,4.0,5.832752352,160.2605319,6.79,'11111222,11111222,11111222' 
TABS,ioos:station:wmo:42045:1,2015-09-04T12:00:00Z,26.2168,-96.4998,4.0,5.948688931,160.8647549,6.93,'11111222,11111222,11111222' 
TABS,ioos:station:wmo:42045:1,2015-09-04T12:30:00Z,26.2168,-96.4998,4.0,6.380164575,155.1624068,7.26,'11111222,11111222,11111222' 
TABS,ioos:station:wmo:42045:1,2015-09-04T13:00:00Z,26.2168,-96.4998,4.0,6.594459796,158.8442276,7.51,'11111222,11111222,11111222' 
TABS,ioos:station:wmo:42045:1,2015-09-04T13:30:00Z,26.2168,-96.4998,4.0,5.774859306,156.8537848,6.66,'11111222,11111222,11111222' 
TABS,ioos:station:wmo:42045:1,2015-09-04T14:00:00Z,26.2168,-96.4998,4.0,5.269772291,154.8454406,6.08,'11111222,11111222,11111222' 
TABS,ioos:station:wmo:42045:1,2015-09-04T14:30:00Z,26.2168,-96.4998,4.0,5.48249031,133.3004277,6.98,'11111222,11111222,11111222' 
TABS,ioos:station:wmo:42045:1,2015-09-04T15:00:00Z,26.2168,-96.4998,4.0,4.341082814,122.7752216,5.34,'11111222,11111222,11111222' 
TABS,ioos:station:wmo:42045:1,2015-09-04T15:30:00Z,26.2168,-96.4998,4.0,4.991512797,158.3693742,6.17,'11111222,11111222,11111222' 
TABS,ioos:station:wmo:42045:1,2015-09-04T16:00:00Z,26.2168,-96.4998,4.0,8.858357636,183.6895057,13.32,'11111222,11111222,11111222' 
TABS,ioos:station:wmo:42045:1,2015-09-04T16:30:00Z,26.2168,-96.4998,4.0,4.943136656,141.9016642,6.14,'11111222,11111222,11111222' 
TABS,ioos:station:wmo:42045:1,2015-09-04T17:00:00Z,26.2168,-96.4998,4.0,7.102520679,161.3612249,8.64,'11111222,11111222,11111222' 
TABS,ioos:station:wmo:42045:1,2015-09-04T17:30:00Z,26.2168,-96.4998,4.0,7.107693015,156.5370555,8.17,'11111222,11111222,11111222' 
TABS,ioos:station:wmo:42045:1,2015-09-04T18:00:00Z,26.2168,-96.4998,4.0,7.082668988,156.8016742,8.67,'11111222,11111222,11111222' 
TABS,ioos:station:wmo:42045:1,2015-09-04T18:30:00Z,26.2168,-96.4998,4.0,6.51627194,158.6723589,7.48,'11111222,11111222,11111222' 